Theta_e
328 328 327 326 326 325 325 325 325 324 323 323 324 324 324 324 323 323 322 321 320 320
328 328 327 328 327 327 327 327 326 325 323 323 323 323 323 323 322 322 321 322 322 321
328 328 328 328 327 327 328 327 326 325 324 323 323 323 322 322 322 321 322 322 320 320
328 328 328 327 327 327 327 327 326 325 324 324 323 323 322 322 321 321 321 320 318 318
325 327 326 326 326 326 326 327 326 326 324 323 323 323 322 322 322 320 319 318 316 316
322 323 325 325 325 325 325 325 326 325 324 324 324 322 322 323 322 320 318 317 315 315
319 321 322 324 324 325 325 324 324 325 325 323 323 322 321 321 321 319 317 315 315 315
318 320 320 320 321 323 323 323 324 323 322 321 320 319 317 316 318 317 313 311 312 311
314 314 316 316 314 317 319 320 320 319 320 318 312 303 304 310 313 311 309 307 303 302
307 305 306 306 305 306 309 311 311 313 313 313 309 301 302 301 311 310 309 304 300 296
299 301 299 300 303 301 302 306 305 304 308 310 306 299 299 297 307 306 304 302 299 296
297 297 296 297 300 301 298 298 300 299 300 301 297 296 296 298 298 295 293 294 295 294
295 297 297 300 299 294 299 299 295 292 297 294 294 294 295 297 294 290 289 287 288 288
294 296 298 298 296 292 295 291 291 291 289 290 291 292 294 294 291 290 288 287 286 286
Wind_Speed
22 15 15 16 13 12 13 14 16 17 17 18 16 15 13 10 11 13 12 15 12 9
20 21 18 20 17 14 15 13 15 17 18 17 17 16 15 12 13 13 12 12 12 11
20 20 19 16 19 19 17 16 15 16 17 17 17 17 16 14 13 14 12 10 12 11
18 20 18 18 18 19 17 16 17 16 17 18 17 16 16 16 14 15 14 12 12 12
15 16 18 18 19 17 18 16 16 16 16 17 17 17 17 18 15 16 14 14 12 13
14 15 17 19 18 17 16 17 16 16 18 18 18 17 17 17 17 15 14 13 13 13
12 14 16 15 15 15 16 16 16 16 17 17 16 15 15 15 16 13 12 12 12 12
13 13 12 12 13 13 14 14 15 15 14 13 13 11 13 12 14 13 10 10 11 10
10 10 12 12 11 12 13 14 13 13 14 12 8 12 14 13 11 10 10 10 7 6
8 8 9 9 9 10 11 9 9 10 11 12 9 15 18 18 11 12 11 10 9 7
9 10 8 7 10 7 7 11 9 8 10 11 10 17 17 17 11 10 10 10 11 11
11 10 8 9 10 8 7 7 8 6 10 12 9 16 17 16 9 8 8 7 8 10
10 11 12 13 11 6 7 9 6 7 11 11 11 17 20 14 8 9 7 5 6 10
11 13 14 12 10 8 9 6 8 8 5 6 8 11 16 13 7 7 7 6 5 4
Wind_Direction
210 210 210 207 203 206 203 204 199 201 205 208 209 209 205 204 206 209 210 214 215 220
212 213 211 211 208 208 207 204 202 198 203 206 206 206 204 207 208 206 209 214 215 217
214 215 218 213 214 212 210 203 198 198 200 204 206 204 203 208 209 206 210 217 219 221
218 217 215 217 216 216 213 204 202 199 197 201 202 202 204 212 208 206 215 211 212 216
221 218 219 220 221 217 216 210 203 203 198 198 201 202 204 207 209 213 209 207 204 215
226 220 221 222 220 218 215 214 209 202 201 202 200 198 203 207 213 209 207 205 205 210
220 224 226 224 221 218 215 211 209 207 207 205 203 202 201 204 211 206 204 201 201 200
225 222 219 222 221 214 212 212 209 207 204 200 201 197 194 193 202 202 192 192 194 196
224 217 215 214 210 211 210 207 204 200 198 196 192 180 183 181 189 187 182 190 185 170
217 223 215 209 198 199 197 189 194 189 184 193 183 182 186 179 187 187 190 181 172 158
221 222 214 211 209 203 183 190 187 184 188 193 194 185 183 180 182 184 183 176 171 165
217 216 198 203 211 201 177 183 192 186 187 192 194 186 178 172 164 160 160 153 156 161
208 211 211 214 208 195 203 213 185 186 191 187 182 179 175 167 156 154 150 133 141 160
211 214 215 209 198 184 193 169 187 189 175 172 172 173 168 158 153 151 145 155 158 157